Weather Roundup
Issued by NWS Corpus Christi, TX

Home | Current Version | Previous Version | Text Only | Print | Product List | Glossary On
Versions: 1 2 3 4 5 6 7 8 9 10 11 12 13 14 15 16 17 18 19 20 21 22 23 24 25 26 27 28 29 30 31 32 33 34 35 36 37 38 39 40 41 42 43 44 45 46 47 48 49 50
000
ASUS44 KCRP 270510
HRRCRP

SOUTH TEXAS REGIONAL WEATHER ROUNDUP
NATIONAL WEATHER SERVICE CORPUS CHRISTI TX
1100 PM CST THU FEB 26 2015


TXZ229>244-270600-
...CORPUS CHRISTI AREA OBSERVATIONS...

CITY           SKY/WX    TMP DP  RH WIND       PRES   REMARKS
CORPUS CHRISTI PTCLDY    48  38  68 NE18G29   30.27R
NAS CORPUS CHR PTCLDY    49  41  74 NE23      30.27R
ROCKPORT       CLEAR     46  37  71 N15       30.29R
KINGSVILLE NAS MOCLDY    49  41  74 NE16      30.26R
ALICE          FAIR      47  37  68 NE15G21   30.27R
FALFURRIAS     CLEAR     48  40  74 NE8       30.23R
$$

...VICTORIA AREA OBSERVATIONS...

CITY           SKY/WX    TMP DP  RH WIND       PRES   REMARKS
VICTORIA       CLEAR     41  34  76 N16       30.30R
BEEVILLE       FAIR      42  34  71 NE14      30.30R
PLEASANTON     FLURRIES  39  30  70 NE10G16   30.33R WCI  32
SAN ANTONIO    MOCLDY    37  27  67 N13G20    30.33R WCI  29
$$

...LAREDO AREA OBSERVATIONS...

CITY           SKY/WX    TMP DP  RH WIND       PRES   REMARKS
LAREDO         CLOUDY    50  36  58 NE17      30.27R
COTULLA        PTCLDY    43  31  62 NE17G24   30.30R
DEL RIO        CLOUDY    41  26  55 N5        30.28S
MCALLEN        CLEAR     53  45  74 NE7       30.22R
HEBBRONVILLE   CLOUDY   N/A N/A N/A E10       30.24R
$$

...OTHER TEXAS OBSERVATIONS...

CITY           SKY/WX    TMP DP  RH WIND       PRES   REMARKS
BROWNSVILLE    CLEAR     56  47  71 NE12      30.19R
HOUSTON        CLOUDY    38  32  79 N10G21    30.34R WCI  31
COL. STATION   PTCLDY    36  25  64 N12       30.37R WCI  28
AUSTIN         CLOUDY    37  22  54 NE20G25   30.35S WCI  27
WACO           CLOUDY    34  22  61 N7        30.39F
FORT WORTH     CLOUDY    32  14  47 N16G24    30.42R WCI  21
WICHITA FALLS  CLOUDY    28   6  39 NE9       30.47R
LUBBOCK        CLOUDY    23  12  62 E14       30.27F WCI  11
EL PASO        PTCLDY    34  24  67 E16       30.02R WCI  24
$$

...MARINE OBSERVATIONS...

STATION/POSITION TIME  SKY/WX   TEMP    WIND        PRES    VSBY  WAVE   SWELL
                                AIR SEA DIR/SP/G                  HT/PER HT/PER
                 (UTC)          (F)     (DEG/KT/KT) (MB)    (MI)  (FT/S) (FT/S)
PORT ARANSAS     0500            48 56  360/ 18/ 22 1025.4R
BUOY 90 E PORT A 0500            56 67   30/ 21/ 27 1023.1R         6/ 7
BUOY 45 SE BAFFI 0500            59 69   50/ 19/ 25 1022.7R         6/ 7
BUOY 200 E PT IS 0500            60 70   50/ 21/ 25 1020.7R         5/ 6
BUOY 15 E GALVES 0500            45 57   10/ 19/ 25 1024.9R         4/ 4
$$



USA.gov is the U.S. government's official web portal to all federal, state and local government web resources and services.